• In Uzbekistan
  • List of Countries
  • For 7 days
  • Water Temperature
  • Satellite Maps
  • Weather Map
  • Weather Widgets
  • user-avatar
    Login

    Hourly Weather Kukvaz

    Today, 17 October, Wednesday

    Time Temperature Precipitation Wind Pressure Humidity
    00:00 +6°C° 0 mm 1 mps 625 mmHg 78%
    01:00 +6°C° 0 mm 1 mps 625 mmHg 77%
    02:00 +6°C° 0 mm 1 mps 625 mmHg 75%
    03:00 +6°C° 0 mm 1 mps 625 mmHg 73%
    04:00 +6°C° 0 mm 1 mps 625 mmHg 70%
    05:00 +6°C° 0 mm 1 mps 625 mmHg 68%
    06:00 +6°C° 0 mm 1 mps 625 mmHg 66%
    07:00 +8°C° 0 mm 1 mps 626 mmHg 59%
    08:00 +10°C° 0 mm 1 mps 626 mmHg 53%
    09:00 +12°C° 0 mm 2 mps 627 mmHg 47%
    10:00 +13°C° 0 mm 2 mps 627 mmHg 47%
    11:00 +13°C° 0 mm 2 mps 627 mmHg 47%
    12:00 +13°C° 0 mm 3 mps 627 mmHg 47%
    13:00 +13°C° 0 mm 3 mps 627 mmHg 49%
    14:00 +12°C° 0 mm 3 mps 627 mmHg 52%
    15:00 +13°C° 0 mm 2 mps 626 mmHg 56%
    16:00 +10°C° 0 mm 2 mps 626 mmHg 64%
    17:00 +9°C° 0 mm 2 mps 625 mmHg 73%
    18:00 +8°C° 0 mm 1 mps 624 mmHg 81%
    19:00 +8°C° 0 mm 1 mps 624 mmHg 77%
    20:00 +8°C° 0 mm 1 mps 624 mmHg 73%
    21:00 +8°C° 0 mm 1 mps 624 mmHg 70%
    22:00 +7°C° 0 mm 1 mps 624 mmHg 64%
    23:00 +7°C° 0 mm 1 mps 623 mmHg 59%

    Tomorrow, 18 October, Thursday

    Time Temperature Precipitation Wind Pressure Humidity
    00:00 +7°C° 0 mm 1 mps 623 mmHg 53%
    01:00 +7°C° 0 mm 1 mps 623 mmHg 48%
    02:00 +7°C° 0 mm 1 mps 623 mmHg 42%
    03:00 +7°C° 0 mm 1 mps 623 mmHg 36%
    04:00 +7°C° 0 mm 1 mps 623 mmHg 32%
    05:00 +7°C° 0 mm 1 mps 622 mmHg 29%
    06:00 +6°C° 0 mm 1 mps 622 mmHg 25%
    07:00 +9°C° 0 mm 1 mps 623 mmHg 26%
    08:00 +11°C° 0 mm 1 mps 624 mmHg 27%
    09:00 +13°C° 0 mm 2 mps 625 mmHg 28%
    10:00 +14°C° 0 mm 2 mps 625 mmHg 30%
    11:00 +14°C° 0 mm 2 mps 625 mmHg 32%
    12:00 +15°C° 0 mm 2 mps 626 mmHg 34%
    13:00 +15°C° 0 mm 2 mps 625 mmHg 39%
    14:00 +14°C° 0 mm 2 mps 625 mmHg 43%
    15:00 +14°C° 0 mm 2 mps 625 mmHg 47%
    16:00 +12°C° 0 mm 2 mps 624 mmHg 58%
    17:00 +10°C° 0 mm 1 mps 623 mmHg 68%
    18:00 +8°C° 0 mm 1 mps 623 mmHg 79%
    19:00 +8°C° 0 mm 1 mps 623 mmHg 75%
    20:00 +8°C° 0 mm 1 mps 623 mmHg 71%
    21:00 +8°C° 0 mm 1 mps 623 mmHg 67%
    22:00 +7°C° 0 mm 1 mps 623 mmHg 64%
    23:00 +7°C° 0 mm 1 mps 623 mmHg 61%

    Day after tomorrow, 19 October, Friday

    Time Temperature Precipitation Wind Pressure Humidity
    00:00 +7°C° 0 mm 1 mps 623 mmHg 57%
    01:00 +7°C° 0 mm 1 mps 623 mmHg 55%
    02:00 +6°C° 0 mm 2 mps 622 mmHg 52%
    03:00 +6°C° 0 mm 2 mps 622 mmHg 49%
    04:00 +6°C° 0 mm 2 mps 622 mmHg 47%
    05:00 +6°C° 0 mm 2 mps 622 mmHg 45%
    06:00 +6°C° 0 mm 1 mps 622 mmHg 42%
    07:00 +9°C° 0 mm 1 mps 623 mmHg 39%
    08:00 +11°C° 0 mm 1 mps 624 mmHg 35%
    09:00 +13°C° 0 mm 1 mps 625 mmHg 31%
    10:00 +14°C° 0 mm 2 mps 625 mmHg 33%
    11:00 +15°C° 0 mm 2 mps 625 mmHg 34%
    12:00 +15°C° 0 mm 2 mps 625 mmHg 35%
    13:00 +15°C° 0 mm 2 mps 625 mmHg 40%
    14:00 +15°C° 0 mm 2 mps 624 mmHg 44%
    15:00 +15°C° 0 mm 2 mps 624 mmHg 48%
    16:00 +13°C° 0 mm 2 mps 623 mmHg 58%
    17:00 +11°C° 0 mm 1 mps 623 mmHg 68%
    18:00 +9°C° 0 mm 1 mps 622 mmHg 78%
    19:00 +9°C° 0 mm 1 mps 622 mmHg 77%
    20:00 +9°C° 0 mm 1 mps 622 mmHg 75%
    21:00 +8°C° 0 mm 1 mps 622 mmHg 74%
    22:00 +7°C° 0 mm 2 mps 622 mmHg 73%
    23:00 +7°C° 0 mm 2 mps 622 mmHg 72%

    20 October, Saturday

    Time Temperature Precipitation Wind Pressure Humidity
    00:00 +7°C° 0 mm 2 mps 621 mmHg 71%
    01:00 +7°C° 0 mm 2 mps 621 mmHg 70%
    02:00 +7°C° 0 mm 2 mps 621 mmHg 69%
    03:00 +6°C° 0 mm 2 mps 621 mmHg 68%
    04:00 +6°C° 0 mm 2 mps 621 mmHg 66%
    05:00 +6°C° 0 mm 2 mps 620 mmHg 65%
    06:00 +6°C° 0 mm 2 mps 620 mmHg 63%
    07:00 +9°C° 0 mm 2 mps 621 mmHg 55%
    08:00 +12°C° 0 mm 2 mps 622 mmHg 47%
    09:00 +14°C° 0 mm 1 mps 623 mmHg 39%
    10:00 +15°C° 0 mm 2 mps 623 mmHg 37%
    11:00 +16°C° 0 mm 2 mps 623 mmHg 36%
    12:00 +17°C° 0 mm 2 mps 623 mmHg 34%
    13:00 +16°C° 0 mm 2 mps 623 mmHg 37%
    14:00 +16°C° 0 mm 2 mps 622 mmHg 39%
    15:00 +16°C° 0 mm 2 mps 622 mmHg 42%
    16:00 +14°C° 0 mm 1 mps 621 mmHg 50%
    17:00 +12°C° 0 mm 1 mps 621 mmHg 58%
    18:00 +10°C° 0 mm 1 mps 620 mmHg 66%
    19:00 +10°C° 0 mm 1 mps 620 mmHg 64%
    20:00 +10°C° 0 mm 1 mps 620 mmHg 62%
    21:00 +10°C° 0 mm 1 mps 620 mmHg 60%
    22:00 +9°C° 0 mm 1 mps 620 mmHg 58%
    23:00 +9°C° 0 mm 1 mps 620 mmHg 56%

    21 October, Sunday

    Time Temperature Precipitation Wind Pressure Humidity
    00:00 +9°C° 0 mm 1 mps 620 mmHg 54%
    01:00 +9°C° 0 mm 1 mps 619 mmHg 53%
    02:00 +8°C° 0 mm 2 mps 619 mmHg 52%
    03:00 +7°C° 0 mm 2 mps 619 mmHg 51%
    04:00 +7°C° 0 mm 2 mps 619 mmHg 50%
    05:00 +7°C° 0 mm 2 mps 619 mmHg 48%
    06:00 +7°C° 0 mm 2 mps 619 mmHg 47%
    07:00 +10°C° 0 mm 1 mps 620 mmHg 41%
    08:00 +12°C° 0 mm 1 mps 621 mmHg 35%
    09:00 +15°C° 0 mm 1 mps 622 mmHg 29%
    10:00 +15°C° 0 mm 1 mps 622 mmHg 29%
    11:00 +16°C° 0 mm 2 mps 622 mmHg 29%
    12:00 +17°C° 0 mm 2 mps 622 mmHg 30%
    13:00 +16°C° 0 mm 2 mps 622 mmHg 33%
    14:00 +16°C° 0 mm 2 mps 621 mmHg 36%
    15:00 +15°C° 0 mm 2 mps 621 mmHg 39%
    16:00 +14°C° 0 mm 1 mps 620 mmHg 45%
    17:00 +12°C° 0 mm 1 mps 620 mmHg 51%
    18:00 +10°C° 0 mm 1 mps 619 mmHg 57%
    19:00 +10°C° 0 mm 1 mps 619 mmHg 56%
    20:00 +10°C° 0 mm 1 mps 619 mmHg 54%
    21:00 +10°C° 0 mm 1 mps 619 mmHg 53%
    22:00 +10°C° 0 mm 1 mps 619 mmHg 52%
    23:00 +10°C° 0 mm 1 mps 619 mmHg 52%

    22 October, Monday

    Time Temperature Precipitation Wind Pressure Humidity
    00:00 +9°C° 0 mm 1 mps 619 mmHg 51%
    01:00 +9°C° 0 mm 1 mps 619 mmHg 51%
    02:00 +9°C° 0 mm 1 mps 619 mmHg 50%
    03:00 +9°C° 0 mm 1 mps 618 mmHg 50%
    04:00 +9°C° 0 mm 1 mps 618 mmHg 50%
    05:00 +9°C° 0 mm 1 mps 619 mmHg 49%
    06:00 +9°C° 0 mm 1 mps 619 mmHg 49%
    07:00 +10°C° 0 mm 1 mps 619 mmHg 47%
    08:00 +12°C° 0 mm 1 mps 620 mmHg 44%
    09:00 +14°C° 0 mm 1 mps 621 mmHg 42%
    10:00 +14°C° 0 mm 1 mps 621 mmHg 42%
    11:00 +15°C° 0 mm 2 mps 621 mmHg 42%
    12:00 +16°C° 0 mm 2 mps 621 mmHg 42%
    13:00 +16°C° 0 mm 2 mps 621 mmHg 45%
    14:00 +15°C° 0 mm 2 mps 621 mmHg 47%
    15:00 +15°C° 0 mm 2 mps 621 mmHg 49%
    16:00 +13°C° 0 mm 2 mps 621 mmHg 55%
    17:00 +12°C° 0 mm 1 mps 620 mmHg 61%
    18:00 +10°C° 0 mm 1 mps 620 mmHg 67%
    19:00 +10°C° 0 mm 1 mps 620 mmHg 65%
    20:00 +10°C° 0 mm 1 mps 620 mmHg 63%
    21:00 +10°C° 0 mm 1 mps 620 mmHg 60%
    22:00 +9°C° 0 mm 1 mps 620 mmHg 59%
    23:00 +9°C° 0 mm 1 mps 620 mmHg 58%
    Show more